Location: Rumah Long Bangan
(2.8362°N, 113.7519°E)
Time: 06:10:19
(UTC+00:00)

Cosmos 1680 Rocket - Pass Details

Date: 24 October 2021
Orbit: 759 x 782 km, 74.1° (Epoch: 28 November)

Event Time Altitude Azimuth Distance (km) Brightness Sun altitude
Rises 20:47:53 0° 198° (SSW) 3,212 6.7 -20.4°
Reaches altitude 10° 20:50:16 10° 201° (SSW) 2,287 5.9 -19.9°
Maximum altitude 20:55:24 66° 282° (WNW) 829 3.4 -18.6°
Drops below altitude 10° 21:00:33 10° 4° (N) 2,289 5.9 -17.4°
Sets 21:02:56 0° 7° (N) 3,216 6.7 -16.8°
